Weather in Spirino

Russia / Novosibirsk Oblast     54°08′02″N   81°33′24″E
temp.,
°C
wind,
m/s
gust,
m/s
humid.,
%
clouds,
%
prec.,
mm/h
press.,
hPa
HPBL,
m
28 september, tue
tue2801:00+2ne258512 0.0 1023118
04:000nne36905 0.0 102297
07:00−1nne368821 0.0 1022108
10:00+4ne466922 0.0 1022364
13:00+8ene445086 0.0 10211321
16:00+8ene4346100 0.0 10201462
19:00+5ene3662100 0.0 1020150
22:00+2ene387618 0.0 1018132
29 september, wed
wed2901:00+2ene398392 0.0 1016188
04:00+2ene41082100 0.0 1014308
07:00+3ene51281100 0.1 1012515
10:00+2ene51194100 1.6 1010599
13:00+1ne51199100 10.9 1009502
16:00+3ne3699100 2.4 1009389
19:00+3nw35100100 2.7 1009241
22:00+2nw4699100 0.6 1010440
30 september, thu
thu3001:00+2wnw4698100 0.9 1011512
04:00+3wnw4798100 0.1 1012710
07:00+3wnw5898100 0.3 1013662
10:00+2w4898100 0.6 1014449
13:00+3w4694100 0.8 1015462
16:00+5w467797 0.3 1015990
19:00+4w368699 0.7 1016188
22:00+2w349295 0.0 101678
1 october, fri
fri101:00+1wnw239453 0.0 101653
04:00+1w2499100 0.1 1016271
07:00+1wsw2399100 0.6 1015208
10:00+2wsw2499100 0.3 1015279
13:00+2w4798100 0.8 1015326
16:00+4wsw4887100 0.3 1015731
19:00+4wsw4976100 0.5 1014333
22:00+2sw388696 0.0 1015257
2 october, sat
sat201:00+2sw4897100 0.1 1015572
04:00+2wsw2499100 1.0 1014372
07:00+1nw35100100 2.8 1015162
10:00+1wnw4581100 0.1 1016738
13:00+2w3480100 0.3 1017801
16:00+3wnw3471100 0.4 1018975
19:00+1w3584100 0.7 1020168
22:00+1w2590100 0.1 1022149